Tracking 35237 objects as of 5-Sep-2026
HD Live streaming from Space Station
objects crossing your sky now

DELTA 1 DEB


DELTA 1 DEB is no longer on orbit


NORAD ID: 7896
Int'l Code: 1972-058BN
Launch date: July 23, 1972
Source: United States (US)
Launch site: AIR FORCE WESTERN TEST RANGE (AFWTR)
Decay date: 1979-11-27

Note: This is SATELLITE DEBRIS
Your satellite tracking list
Your tracking list is empty




NASA's NSSDC Master Catalog

Two Line Element Set (TLE):
1 07896U 72058 BN 79329.44249318  .06219929 +10006-5 +10363-1 0  9991
2 07896 097.6091 304.3143 0018465 116.1645 245.5117 16.02563111243190
Source of the keplerian elements: AFSPC